Tracking 23731 objects as of 26-Sep-2021
HD Live streaming from Space Station
objects crossing your sky now

STARLINK-1457

Track STARLINK-1457 now!
10-day predictions
STARLINK-1457 is classified as:


NORAD ID: 45674
Int'l Code: 2020-035T
Perigee: 553.0 km
Apogee: 555.7 km
Inclination: 53.1 °
Period: 95.6 minutes
Semi major axis: 6925 km
RCS: Unknown
Launch date: June 4, 2020
Source: United States (US)
Launch site: AIR FORCE EASTERN TEST RANGE (AFETR)
aabbcc
Your satellite tracking list
Your tracking list is empty




NASA's NSSDC Master Catalog

Two Line Element Set (TLE):
1 45674U 20035T   21269.44161772  .00000522  00000-0  53956-4 0  9999
2 45674  53.0544 162.6473 0001966  73.1738 286.9466 15.06395148 73743
Source of the keplerian elements: AFSPC